www.pogodaiklimat.ru

Погода и климат >> Архив погоды >> Пакистан >> Дера Гази Хан


ПОГОДА в Дера Гази Хан

  • Прогноз погоды в Дера Гази Хан
  • Монитор погоды в Дера Гази Хан

АРХИВ ПОГОДЫ в Дера Гази Хан

Время (UTC), дата Ветер
(напр.,м/с)
 
Видим.   Явления Облачность Т
(С)
Тd
(С)
f
(%)
Тe
(С)
Тes
(С)
Комфортность P
(гПа)
Po
(гПа)
Тmin
(С)
Tmax
(С)
R
(мм)
R24
(мм)
S
(см)
18 20.06 С 4 4000 м 5/0
[Ac trans]
+28.0 +22.1 70 +36 +36 очень
душно
1003.4 986.1
00 21.06 С 2 4000 м 3/0
[Ac trans]
+26.0 +21.5 76 +33 +33 очень
душно
1002.2 984.9
03 21.06 СВ 2 4000 м 3/0
[Ac trans]
+28.0 +22.1 70 +36 +42 очень
душно
1003.0 985.8 +25.2
06 21.06 СВ 2 4000 м ясно +32.0 +23.4 60 +43 +62 опасность
перегрева
1005.0 991.3
09 21.06 СВ 2 4000 м мгла ясно +36.5 +23.8 48 +47 +66 опасность
перегрева
1003.8 990.3
12 21.06 С 3 4000 м ясно +36.0 +24.0 50 +47 +51 опасность
перегрева
999.9 982.7 +38.0
18 21.06 СВ 4 4000 м 8/5 1200 м
[Sc Ac trans]
+30.0 +22.0 62 +39 +39 очень
душно
1002.2 988.4
21 21.06 С 3 4000 м 5/0
[Ac trans]
+27.5 +21.6 70 +35 +35 очень
душно
1001.1 987.2
00 22.06 С 3 4000 м 4/0
[Ac trans]
+26.5 +21.3 73 +34 +34 очень
душно
1000.2 983.0
03 22.06 СВ 3 4000 м ясно +29.0 +21.6 64 +37 +42 очень
душно
1001.5 984.2 +26.0
06 22.06 ЮВ 4 4000 м ясно +37.0 +25.2 51 +51 +64 опасность
перегрева
1002.6 989.1
09 22.06 ЮВ 5 4000 м мгла ясно +39.0 +25.2 46 +52 +62 опасность
перегрева
1000.6 987.2
12 22.06 Ю 4 4000 м ясно +39.5 +25.0 44 +52 +55 опасность
перегрева
998.4 981.2 +40.5
15 22.06 ЮВ 5 4000 м 8/5 1200 м
[Sc Ac trans]
+34.0 +22.5 51 +43 +43 опасность
перегрева
999.7 986.1
18 22.06 Ю 3 4000 м 8/4 1200 м
[Sc Ac trans]
+31.0 +21.4 57 +39 +39 очень
душно
1001.1 987.4 0.0
21 22.06 С 3 4000 м 4/0
[Ac trans]
+28.0 +20.5 64 +35 +35 очень
душно
1000.1 986.2
00 23.06 СВ 3 4000 м ясно +27.0 +20.2 66 +33 +33 очень
душно
999.5 982.3
03 23.06 СВ 2 4000 м ясно +30.0 +20.3 56 +37 +43 очень
душно
1000.4 983.2 +26.5
06 23.06 ЮВ 3 4000 м ясно +37.5 +22.5 42 +46 +63 опасность
перегрева
1001.5 988.0
09 23.06 ЮВ 2 4000 м ясно +39.5 +23.3 40 +49 +68 опасность
перегрева
999.7 986.3
12 23.06 ЮЗ 6 4000 м 3/0
[Ac trans]
+40.0 +23.9 40 +51 +52 опасность
перегрева
996.4 979.3 +41.0
15 23.06 С 9 4000 м пыль 9/5 1200 м
[Sc Ac trans]
+34.0 +20.8 46 +41 +41 опасность
перегрева
1000.6 987.0
18 23.06 С 6 4000 м 10/5 1200 м
[Sc Ac trans]
+28.0 +17.9 54 +32 +32 душно 1003.8 989.9
00 24.06 С 4 4000 м в посл. час дождь {гроза, морось} 10/5 1200 м
[Sc Ac trans]
+25.0 +18.8 68 +30 +30 душно 1002.2 984.9 3
03 24.06 СВ 3 4000 м 9/4 1200 м
[Sc Ac trans]
+28.5 +19.4 58 +34 +36 очень
душно
1004.4 987.2 +24.5
06 24.06 ЮВ 4 4000 м 6/3 1200 м
[Sc Ac trans]
+30.0 +19.4 53 +36 +43 очень
душно
1006.0 992.1
09 24.06 В 3 4000 м 3/0
[Ac trans]
+35.0 +20.2 42 +41 +54 опасность
перегрева
1003.4 989.8
12 24.06 ЮВ 3 4000 м ясно +37.0 +21.0 40 +44 +48 опасность
перегрева
1000.9 983.7 +37.5
15 24.06 С 3 4000 м 4/0
[Ac trans]
+32.5 +19.8 47 +38 +38 очень
душно
1001.8 988.1
18 24.06 СВ 3 4000 м 8/3 1200 м
[Sc Ac trans]
+30.5 +20.0 53 +37 +37 очень
душно
1005.6 991.8
21 24.06 СВ 3 4000 м 5/0
[Ac und]
+28.5 +19.4 58 +34 +34 очень
душно
1003.6 989.7
00 25.06 С 2 4000 м 5/0
[Ac trans]
+27.5 +19.0 60 +33 +33 очень
душно
1003.0 985.8
03 25.06 В 3 4000 м ясно +30.0 +19.4 53 +36 +41 очень
душно
1003.5 986.2 +27.0
06 25.06 СВ 3 4000 м ясно +36.0 +21.5 43 +44 +60 опасность
перегрева
1004.9 991.3
09 25.06 Ю 3 4000 м ясно +38.5 +22.0 39 +47 +62 опасность
перегрева
1002.2 988.8
12 25.06 Ю 2 4000 м ясно +37.5 +21.0 38 +44 +49 опасность
перегрева
1000.1 986.7 +39.0
15 25.06 Ю 2 4000 м 4/0
[Ac trans]
+35.0 +23.7 52 +46 +46 опасность
перегрева
1001.4 987.8
18 25.06 Ю 2 4000 м 3/0
[Ac trans]
+32.0 +23.4 60 +43 +43 опасность
перегрева
1002.6 988.9
21 25.06 штиль 0 4000 м 3/0
[Ac trans]
+30.0 +21.1 59 +38 +38 очень
душно
1001.4 987.6
00 26.06 ЮВ 3 4000 м 3/0
[Ac trans]
+29.5 +20.5 58 +36 +36 очень
душно
999.4 982.2
03 26.06 С 2 4000 м ясно +33.0 +24.6 61 +46 +52 опасность
перегрева
1000.5 983.3 +28.7
06 26.06 ЮВ 3 4000 м ясно +38.5 +25.4 48 +53 +69 опасность
перегрева
1001.0 987.6
12 26.06 Ю 2 4000 м 5/0
[]
+30.5 +22.6 63 +40 +44 очень
душно
999.5 985.8 +45.3 1
15 26.06 Ю 2 4000 м 3/0
[]
+32.0 +20.0 49 +38 +38 очень
душно
999.1 985.4
18 26.06 ЮВ 2 4000 м 3/0
[Ac trans]
+28.5 +18.5 55 +34 +34 очень
душно
999.3 985.5 1
00 27.06 ЮВ 2 4000 м ясно +27.0 +18.5 60 +32 +32 очень
душно
997.0 983.1
03 27.06 Ю 2 4000 м ясно +30.0 +19.4 53 +36 +42 очень
душно
997.0 983.3 +26.5
06 27.06 ЮВ 2 4000 м мгла ясно +33.0 +23.0 56 +43 +63 опасность
перегрева
998.8 985.2
09 27.06 Ю 2 4000 м мгла ясно +37.0 +20.0 37 +43 +61 опасность
перегрева
996.3 982.9

 

Местоположение метеостанции Дера Гази Хан (Пакистан): широта 30.05 долгота 70.63 высота над уровнем моря 123 м.

В архиве по умолчанию представлена погода в Дера Гази Хан за последнюю неделю. Архивные данные за месяц целиком и за предыдущие месяцы, начиная с января 2011 года, Вы можете получить, выбрав интересующий диапазон дат из раскрывающегося списка и нажав кнопку "Ввод!".


*Определитесь, кто Вы:
робот инопланетянин человек

Внимание! Время в таблицах - всемирное. Для получения местного времени необходимо прибавить поправку, которая равна 5 ч.

Смотрите также архив погоды в соседних городах и на ближайших метеорологических станциях:

Погода в Кот Адду (Пакистан) (54 км)
Погода в Мултане (Пакистан) (79 км)
Погода в Бархане (Пакистан) (90 км)
Погода в Леяхе (Пакистан) (113 км)
Погода в Ханевале (Пакистан) (125 км)
Погода в Бахавалпуре (Пакистан) (133 км)
Погода а Бахавалпур аэропорту (Пакистан) (133 км)
Погода в Ханпуре (Пакистан) (156 км)
Погода на Авиабазе Raifiqui (Пакистан) (171 км)
Погода в Бхаккаре (Пакистан) (180 км)

Пояснения к столбцам:

Ветер - указаны скорость ветра в м/с - средняя за 10 мин, порывы в срок и между сроками (в фигурных скобках) и направление, откуда дует ветер: С - северный, СВ - северо-восточный, В - восточный, ЮВ - юго-восточный, Ю - южный, ЮЗ - юго-западный, З - западный, СЗ - северо-западный.
Видимость - горизонтальная дальность видимости в метрах или километрах. При видимости от 1 до 10 км при отсутствии осадков обычно наблюдается дымка, при ухудшении видимости до 1 км и менее - туман. В сухую погоду видимость может ухудшаться дымом, пылью или мглою.
Явления - указаны атмосферные явления, наблюдавшиеся в срок или в последний час перед сроком; фигурными скобками обозначены явления, наблюдавшиеся между сроками (за 1-3 часа до срока); квадратными скобками обозначены град или гололедные отложения с указанием их диаметра в мм.
Облачность - указаны через наклонную черту общая и нижняя облачность в баллах и высота нижней границы облаков в метрах; квадратными скобками обозначены формы облаков: Ci - перистые, Cs - перисто-слоистые, Cc - перисто-кучевые, Ac - высококучевые, As - высокослоистые, Sc - слоисто-кучевые, Ns - слоисто-дождевые, Cu - кучевые, Cb - кучево-дождевые. Подробнее классификацию облаков см. в Атласе облаков (PDF).
T - Температура воздуха - температура, измеренная на высоте 2 м над землей.
Td - Температура точки росы - температура, при понижении до которой содержащийся в воздухе водяной пар достигнет насыщения.
f - Относительная влажность воздуха - влажноcть воздуха, измеренная на высоте 2 м над землей.
Te - Эффективная температура - температура, которую ощущает одетый по сезону человек в тени. Характеристика душности погоды. При расчете учитывается влияние влажности воздуха и скорости ветра на теплоощущения человека.
Tes - Эффективная температура на солнце - температура, которую ощущает человек, с поправкой на солнечный нагрев. Характеристика знойности погоды. Зависит от высоты солнца над горизонтом, облачности и скорости ветра. Ночью, в пасмурную погоду, а также при ветре 12 м/с и более поправка равна нулю.
P - Атмосферное давление - приведенное к уровню моря атмосферное давление.
Po - Атмосферное давление - измеренное на уровне метеостанции атмосферное давление.
Tmin - Минимальная температура - минимум температуры воздуха на высоте 2 м над землей.
Tmax - Максимальная температура - максимум температуры воздуха на высоте 2 м над землей.
R - Количество осадков - Количество выпавших осадков за период времени, мм. При наведении курсора мыши на число - период времени, за который выпало указанное количество осадков.
R24 - Количество осадков - Количество выпавших осадков за 24 часа, мм.
S - Снежный покров - Высота снежного покрова, см. При наведении курсора мыши на число - состояние снежного покрова и степень покрытия местности в баллах.